Location: Sternwarte ZA, Rosenfeld-Brittheim
(48.2889°N, 8.6789°E)
Time: 03:23:39
(UTC+01:00)

ISS - Pass Details

Date: 08 December 2021
Orbit: 413 x 422 km, 51.6° (Epoch: 24 January)

Event Time Altitude Azimuth Distance (km) Brightness Sun altitude
Rises 17:54:09 0° 287° (WNW) 2,385 1.0 -13.1°
Reaches altitude 10° 17:56:34 10° 272° (W) 1,514 0.2 -13.5°
Maximum altitude 17:59:14 22° 220° (SW) 989 -1.1 -13.9°
Drops below altitude 10° 18:01:54 10° 168° (SSE) 1,501 -0.9 -14.3°
Enters shadow 18:05:58 -5° 147° (SSE) 3,020 0.4 -15.0°
